When you browse on this site, cookies collect data to enhance your experience and personalize the content and advertising you see.
Visit our Privacy Policy to learn more. By continuing to use the site, you agree to this use of cookies and data.
  • în România
  • Lista ţărilor
  • Pe 7 zile
  • Temperatura apei
  • Hartă satelitară
  • Meteo pe hartă
  • Widget-uri
  • user-avatar
    Intrare

    Meteo pe oră la Wzorki

    Astăzi, 9 Decembrie, Duminică

    Timp Temperatura Precipitaţii Vânt Presiune Umiditate
    00:00 +1°C° 0 mm 5 m/s 729 mmHg 79%
    01:00 +1°C° 0 mm 4 m/s 728 mmHg 81%
    02:00 +1°C° 0 mm 4 m/s 728 mmHg 82%
    03:00 +1°C° 0 mm 4 m/s 727 mmHg 83%
    04:00 +1°C° 0 mm 4 m/s 726 mmHg 84%
    05:00 +1°C° 0.1 mm 5 m/s 726 mmHg 82%
    06:00 +1°C° 0.1 mm 5 m/s 725 mmHg 81%
    07:00 0°C° 0 mm 4 m/s 724 mmHg 82%
    08:00 +1°C° 0.7 mm 4 m/s 724 mmHg 79%
    09:00 +2°C° 0.7 mm 5 m/s 723 mmHg 76%
    10:00 +3°C° 0.7 mm 6 m/s 723 mmHg 72%
    11:00 +3°C° 0.2 mm 6 m/s 723 mmHg 71%
    12:00 +4°C° 0.2 mm 7 m/s 722 mmHg 70%
    13:00 +5°C° 0 mm 6 m/s 722 mmHg 69%
    14:00 +4°C° 0.4 mm 6 m/s 722 mmHg 72%
    15:00 +5°C° 0.4 mm 5 m/s 723 mmHg 76%
    16:00 +3°C° 0.4 mm 5 m/s 723 mmHg 79%
    17:00 +3°C° 0.1 mm 5 m/s 723 mmHg 80%
    18:00 +3°C° 0.1 mm 5 m/s 723 mmHg 80%
    19:00 +3°C° 0.1 mm 5 m/s 723 mmHg 81%
    20:00 +3°C° 0 mm 5 m/s 724 mmHg 82%
    21:00 +3°C° 0 mm 5 m/s 724 mmHg 82%
    22:00 +4°C° 0 mm 4 m/s 724 mmHg 83%
    23:00 +4°C° 0.1 mm 4 m/s 724 mmHg 83%

    Mâine, 10 Decembrie, Luni

    Timp Temperatura Precipitaţii Vânt Presiune Umiditate
    00:00 +2°C° 0.1 mm 5 m/s 724 mmHg 84%
    01:00 +2°C° 0.1 mm 5 m/s 725 mmHg 85%
    02:00 +2°C° 0.2 mm 5 m/s 725 mmHg 84%
    03:00 +2°C° 0.2 mm 5 m/s 725 mmHg 83%
    04:00 +3°C° 0.2 mm 6 m/s 725 mmHg 82%
    05:00 +2°C° 0.2 mm 6 m/s 725 mmHg 80%
    06:00 +2°C° 0.2 mm 7 m/s 726 mmHg 78%
    07:00 +2°C° 0.2 mm 7 m/s 726 mmHg 76%
    08:00 +2°C° 0.2 mm 7 m/s 727 mmHg 76%
    09:00 +2°C° 0.2 mm 7 m/s 727 mmHg 75%
    10:00 +2°C° 0.2 mm 7 m/s 728 mmHg 74%
    11:00 +2°C° 0.1 mm 7 m/s 728 mmHg 72%
    12:00 +2°C° 0.1 mm 7 m/s 728 mmHg 70%
    13:00 +2°C° 0.1 mm 7 m/s 729 mmHg 68%
    14:00 +1°C° 0.2 mm 6 m/s 729 mmHg 70%
    15:00 +1°C° 0.2 mm 5 m/s 730 mmHg 72%
    16:00 +1°C° 0.2 mm 5 m/s 730 mmHg 74%
    17:00 0°C° 0.1 mm 5 m/s 730 mmHg 75%
    18:00 0°C° 0.1 mm 5 m/s 731 mmHg 77%
    19:00 -1°C° 0.1 mm 5 m/s 731 mmHg 78%
    20:00 -1°C° 0 mm 4 m/s 731 mmHg 80%
    21:00 -1°C° 0 mm 4 m/s 731 mmHg 81%
    22:00 -2°C° 0 mm 4 m/s 731 mmHg 83%
    23:00 -2°C° 0 mm 4 m/s 731 mmHg 84%

    Poimâine, 11 Decembrie, Marţi

    Timp Temperatura Precipitaţii Vânt Presiune Umiditate
    00:00 -2°C° 0 mm 4 m/s 731 mmHg 84%
    01:00 -2°C° 0 mm 4 m/s 732 mmHg 85%
    02:00 -2°C° 0 mm 4 m/s 731 mmHg 85%
    03:00 -1°C° 0 mm 3 m/s 731 mmHg 86%
    04:00 -1°C° 0 mm 3 m/s 731 mmHg 86%
    05:00 -2°C° 0 mm 3 m/s 731 mmHg 87%
    06:00 -2°C° 0 mm 3 m/s 731 mmHg 87%
    07:00 -2°C° 0 mm 3 m/s 731 mmHg 87%
    08:00 -2°C° 0.1 mm 4 m/s 731 mmHg 84%
    09:00 -1°C° 0.1 mm 4 m/s 731 mmHg 81%
    10:00 -1°C° 0.1 mm 4 m/s 732 mmHg 78%
    11:00 0°C° 0.2 mm 4 m/s 731 mmHg 79%
    12:00 0°C° 0.2 mm 4 m/s 731 mmHg 79%
    13:00 0°C° 0.2 mm 4 m/s 731 mmHg 79%
    14:00 +1°C° 0.2 mm 3 m/s 731 mmHg 81%
    15:00 +1°C° 0.2 mm 3 m/s 731 mmHg 83%
    16:00 +1°C° 0.2 mm 2 m/s 731 mmHg 86%
    17:00 +1°C° 0.3 mm 2 m/s 732 mmHg 87%
    18:00 +1°C° 0.3 mm 2 m/s 732 mmHg 88%
    19:00 +1°C° 0.3 mm 2 m/s 732 mmHg 89%
    20:00 +1°C° 0.2 mm 2 m/s 732 mmHg 90%
    21:00 -1°C° 0.2 mm 2 m/s 732 mmHg 91%
    22:00 -1°C° 0.2 mm 2 m/s 732 mmHg 92%
    23:00 +1°C° 0.1 mm 1 m/s 733 mmHg 92%

    12 Decembrie, Miercuri

    Timp Temperatura Precipitaţii Vânt Presiune Umiditate
    00:00 +1°C° 0.1 mm 1 m/s 733 mmHg 93%
    01:00 +1°C° 0.1 mm 1 m/s 733 mmHg 94%
    02:00 +1°C° 0 mm 1 m/s 734 mmHg 94%
    03:00 +1°C° 0 mm 1 m/s 734 mmHg 94%
    04:00 +1°C° 0 mm 1 m/s 734 mmHg 94%
    05:00 +1°C° 0.1 mm 1 m/s 735 mmHg 94%
    06:00 +1°C° 0.1 mm 1 m/s 735 mmHg 94%
    07:00 +1°C° 0.1 mm 1 m/s 735 mmHg 94%
    08:00 +1°C° 0.1 mm 1 m/s 736 mmHg 93%
    09:00 +1°C° 0.1 mm 1 m/s 736 mmHg 93%
    10:00 +2°C° 0.1 mm 1 m/s 736 mmHg 92%
    11:00 +2°C° 0 mm 1 m/s 736 mmHg 91%
    12:00 +2°C° 0 mm 1 m/s 737 mmHg 89%
    13:00 +2°C° 0 mm 1 m/s 737 mmHg 88%
    14:00 +2°C° 0 mm 1 m/s 737 mmHg 89%
    15:00 +1°C° 0 mm 1 m/s 737 mmHg 91%
    16:00 +1°C° 0 mm 1 m/s 737 mmHg 92%
    17:00 +1°C° 0 mm 1 m/s 738 mmHg 92%
    18:00 0°C° 0 mm 1 m/s 738 mmHg 93%
    19:00 0°C° 0 mm 1 m/s 738 mmHg 94%
    20:00 0°C° 0 mm 1 m/s 738 mmHg 94%
    21:00 0°C° 0 mm 1 m/s 738 mmHg 94%
    22:00 0°C° 0 mm 1 m/s 739 mmHg 94%
    23:00 -1°C° 0 mm 1 m/s 739 mmHg 94%

    13 Decembrie, Joi

    Timp Temperatura Precipitaţii Vânt Presiune Umiditate
    00:00 -1°C° 0 mm 1 m/s 739 mmHg 94%
    01:00 -1°C° 0 mm 1 m/s 739 mmHg 94%
    02:00 -1°C° 0 mm 1 m/s 739 mmHg 94%
    03:00 -1°C° 0 mm 1 m/s 739 mmHg 94%
    04:00 -3°C° 0 mm 2 m/s 739 mmHg 94%
    05:00 -3°C° 0 mm 2 m/s 739 mmHg 94%
    06:00 -3°C° 0 mm 2 m/s 738 mmHg 93%
    07:00 -3°C° 0 mm 2 m/s 738 mmHg 93%
    08:00 -2°C° 0 mm 2 m/s 738 mmHg 91%
    09:00 -2°C° 0 mm 2 m/s 738 mmHg 89%
    10:00 -2°C° 0 mm 2 m/s 739 mmHg 87%
    11:00 -1°C° 0 mm 2 m/s 738 mmHg 85%
    12:00 -1°C° 0 mm 2 m/s 738 mmHg 83%
    13:00 -1°C° 0 mm 3 m/s 738 mmHg 81%
    14:00 -1°C° 0 mm 2 m/s 738 mmHg 83%
    15:00 -2°C° 0 mm 2 m/s 737 mmHg 85%
    16:00 -2°C° 0 mm 2 m/s 737 mmHg 87%
    17:00 0°C° 0 mm 1 m/s 737 mmHg 89%
    18:00 0°C° 0 mm 1 m/s 737 mmHg 90%
    19:00 -1°C° 0 mm 1 m/s 737 mmHg 91%
    20:00 -1°C° 0 mm 1 m/s 737 mmHg 91%
    21:00 -1°C° 0 mm 1 m/s 737 mmHg 92%
    22:00 -1°C° 0 mm 1 m/s 737 mmHg 92%
    23:00 -1°C° 0 mm 1 m/s 737 mmHg 92%

    14 Decembrie, Vineri

    Timp Temperatura Precipitaţii Vânt Presiune Umiditate
    00:00 -2°C° 0 mm 1 m/s 737 mmHg 93%
    01:00 -2°C° 0 mm 1 m/s 737 mmHg 93%
    02:00 -2°C° 0 mm 1 m/s 737 mmHg 92%
    03:00 -2°C° 0 mm 1 m/s 737 mmHg 92%
    04:00 -2°C° 0 mm 1 m/s 737 mmHg 91%
    05:00 -2°C° 0 mm 1 m/s 737 mmHg 92%
    06:00 -2°C° 0 mm 1 m/s 737 mmHg 92%
    07:00 -2°C° 0 mm 1 m/s 738 mmHg 92%
    08:00 -1°C° 0 mm 1 m/s 738 mmHg 90%
    09:00 -2°C° 0 mm 0 m/s 738 mmHg 88%
    10:00 -1°C° 0 mm 0 m/s 738 mmHg 86%
    11:00 -1°C° 0 mm 0 m/s 738 mmHg 85%
    12:00 -1°C° 0 mm 0 m/s 738 mmHg 84%
    13:00 0°C° 0 mm 0 m/s 738 mmHg 83%
    14:00 -1°C° 0 mm 0 m/s 738 mmHg 85%
    15:00 0°C° 0 mm 1 m/s 738 mmHg 87%
    16:00 -1°C° 0 mm 1 m/s 738 mmHg 90%
    17:00 -1°C° 0 mm 1 m/s 738 mmHg 90%
    18:00 -1°C° 0 mm 1 m/s 738 mmHg 91%
    19:00 -1°C° 0 mm 1 m/s 738 mmHg 91%
    20:00 -1°C° 0 mm 1 m/s 738 mmHg 91%
    21:00 -1°C° 0 mm 1 m/s 738 mmHg 91%
    22:00 -1°C° 0 mm 1 m/s 738 mmHg 92%
    23:00 -1°C° 0 mm 1 m/s 738 mmHg 91%
    Arată mai mult